Weather History for Blacksburg, VA

Change the Weather History Date:

Friday, November 18, 2011

  Actual Average Record
Temperature  
Mean Temperature 34 °F 42 °F  
Max Temperature 46 °F 55 °F 72 °F (1953)
Min Temperature 22 °F 30 °F 14 °F (1997)
Degree Days  
Heating Degree Days 31 23  
Month to date heating degree days 358 353  
Since 1 July heating degree days 825 880  
Cooling Degree Days 0 0  
Month to date cooling degree days 0 0  
Year to date cooling degree days 870 573  
Moisture  
Dew Point 19 °F    
Average Humidity 60    
Maximum Humidity 85    
Minimum Humidity 34    
Precipitation  
Precipitation 0.00 in 0.10 in 0.89 in (1957)
Month to date precipitation 1.61 1.67  
Year to date precipitation 37.97 36.74  
Snow  
Snow 0.00 in - - ()
Month to date snowfall T  
Since 1 July snowfall T  
Since 1 September snowfall T  
Snow Depth 0.00 in    
Sea Level Pressure  
Sea Level Pressure 30.39 in    
Wind  
Wind Speed 5 mph (SW)    
Max Wind Speed 15 mph    
Max Gust Speed 21 mph    
Visibility 10 miles    
Events      
T = Trace of Precipitation, MM = Missing Value Source: NWS Daily Summary

Daily Weather History Graph

Daily Weather History Graph

Search for Another Location

Airport:

Trip Planner

Search our weather history database for the weather conditions in past years. The results will help you decide how hot, cold, wet, or windy it might be!

Date:

Astronomy

Nov. 18, 2011 Rise Set
Actual Time 7:03 AM EST 5:09 PM EST
Civil Twilight 6:35 AM EST 5:37 PM EST
Nautical Twilight 6:03 AM EST 6:09 PM EST
Astronomical Twilight 5:32 AM EST 6:40 PM EST
Moon No Moon Rise 12:46 PM EST (11/18)
Length of Visible Light 11h 02m
Length of Day
10h 06m
Waning Gibbous, 49% of the Moon is Illuminated
Nov 18
Waning Gibbous
Nov 25
New
Dec 2
First Quarter
Dec 10
Full
Dec 17
Last Quarter

Hourly Weather History & Observations

Time (EST) Temp. Windchill Dew Point Humidity Pressure Visibility Wind Dir Wind Speed Gust Speed Precip Events Conditions
12:15 AM 32.0 °F 23.6 °F 15.8 °F 51% 30.28 in 10.0 mi WNW 10.4 mph 17.3 mph N/A   Clear
12:35 AM 32.0 °F 24.2 °F 15.8 °F 51% 30.28 in 10.0 mi WNW 9.2 mph 17.3 mph N/A   Clear
12:55 AM 32.0 °F 21.6 °F 15.8 °F 51% 30.29 in 10.0 mi WNW 15.0 mph 20.7 mph N/A   Clear
1:15 AM 30.2 °F 22.6 °F 15.8 °F 55% 30.29 in 10.0 mi NW 8.1 mph 17.3 mph N/A   Clear
1:35 AM 30.2 °F 20.8 °F 15.8 °F 55% 30.29 in 10.0 mi NW 11.5 mph - N/A   Clear
1:55 AM 30.2 °F 19.8 °F 15.8 °F 55% 30.30 in 10.0 mi NW 13.8 mph 17.3 mph N/A   Clear
2:15 AM 30.2 °F 21.9 °F 15.8 °F 55% 30.31 in 10.0 mi WNW 9.2 mph - N/A   Clear
2:35 AM 30.2 °F 22.6 °F 14.0 °F 51% 30.31 in 10.0 mi WNW 8.1 mph 17.3 mph N/A   Clear
2:55 AM 30.2 °F 21.3 °F 15.8 °F 55% 30.31 in 10.0 mi WNW 10.4 mph 18.4 mph N/A   Clear
3:15 AM 30.2 °F 21.9 °F 15.8 °F 55% 30.32 in 10.0 mi NW 9.2 mph - N/A   Clear
3:35 AM 30.2 °F 21.9 °F 15.8 °F 55% 30.32 in 10.0 mi NW 9.2 mph 16.1 mph N/A   Clear
3:55 AM 30.2 °F 24.3 °F 15.8 °F 55% 30.33 in 10.0 mi WNW 5.8 mph - N/A   Clear
4:15 AM 28.4 °F 23.3 °F 15.8 °F 59% 30.34 in 10.0 mi WNW 4.6 mph - N/A   Clear
4:35 AM 30.2 °F 24.3 °F 15.8 °F 55% 30.34 in 10.0 mi WNW 5.8 mph - N/A   Clear
4:55 AM 28.4 °F 24.6 °F 15.8 °F 59% 30.34 in 10.0 mi WNW 3.5 mph - N/A   Clear
5:15 AM 28.4 °F - 15.8 °F 59% 30.36 in 10.0 mi Calm Calm - N/A   Clear
5:35 AM 28.4 °F - 15.8 °F 59% 30.37 in 10.0 mi Calm Calm - N/A   Clear
5:55 AM 28.4 °F 24.6 °F 15.8 °F 59% 30.38 in 10.0 mi West 3.5 mph - N/A   Clear
6:35 AM 26.6 °F - 17.6 °F 69% 30.39 in 10.0 mi Calm Calm - N/A   Clear
6:55 AM 24.8 °F - 17.6 °F 74% 30.40 in 10.0 mi Calm Calm - N/A   Clear
7:35 AM 26.6 °F - 19.4 °F 74% 30.42 in 10.0 mi Calm Calm - N/A   Clear
7:55 AM 28.4 °F - 21.2 °F 74% 30.43 in 10.0 mi Calm Calm - N/A   Clear
8:15 AM 32.0 °F - 17.6 °F 55% 30.44 in 10.0 mi Calm Calm - N/A   Clear
8:35 AM 32.0 °F - 19.4 °F 60% 30.46 in 10.0 mi Calm Calm - N/A   Clear
8:55 AM 33.8 °F - 17.6 °F 52% 30.46 in 10.0 mi Calm Calm - N/A   Clear
9:15 AM 35.6 °F - 17.6 °F 48% 30.46 in 10.0 mi Calm Calm - N/A   Clear
9:35 AM 35.6 °F - 17.6 °F 48% 30.47 in 10.0 mi Calm Calm - N/A   Clear
9:55 AM 35.6 °F 32.8 °F 17.6 °F 48% 30.48 in 10.0 mi SSW 3.5 mph - N/A   Clear
10:35 AM 35.6 °F 32.8 °F 17.6 °F 48% 30.48 in 10.0 mi SSE 3.5 mph - N/A   Clear
10:55 AM 37.4 °F 34.9 °F 19.4 °F 48% 30.47 in 10.0 mi East 3.5 mph - N/A   Clear
11:15 AM 37.4 °F - 17.6 °F 45% 30.47 in 10.0 mi Calm Calm - N/A   Clear
11:55 AM 39.2 °F 37.0 °F 17.6 °F 42% 30.45 in 10.0 mi South 3.5 mph - N/A   Clear
12:35 PM 41.0 °F - 17.6 °F 39% 30.42 in 10.0 mi Calm Calm - N/A   Clear
12:55 PM 42.8 °F 41.1 °F 19.4 °F 39% 30.41 in 10.0 mi ENE 3.5 mph - N/A   Clear
1:15 PM 42.8 °F 40.1 °F 17.6 °F 36% 30.41 in 10.0 mi East 4.6 mph - N/A   Clear
1:35 PM 42.8 °F 40.1 °F 19.4 °F 39% 30.41 in 10.0 mi SW 4.6 mph - N/A   Clear
1:55 PM 44.6 °F 40.7 °F 19.4 °F 37% 30.40 in 10.0 mi South 6.9 mph - N/A   Clear
2:35 PM 44.6 °F - 19.4 °F 37% 30.38 in 10.0 mi Calm Calm - N/A   Clear
2:55 PM 44.6 °F 42.2 °F 19.4 °F 37% 30.38 in 10.0 mi SSE 4.6 mph - N/A   Clear
3:15 PM 46.4 °F 43.5 °F 19.4 °F 34% 30.37 in 10.0 mi SSE 5.8 mph - N/A   Clear
3:35 PM 46.4 °F 44.3 °F 19.4 °F 34% 30.37 in 10.0 mi SSE 4.6 mph - N/A   Clear
4:15 PM 44.6 °F 41.4 °F 19.4 °F 37% 30.38 in 10.0 mi SSE 5.8 mph - N/A   Clear
4:35 PM 44.6 °F 40.2 °F 21.2 °F 39% 30.38 in 10.0 mi SSE 8.1 mph - N/A   Clear
4:55 PM 42.8 °F 40.1 °F 21.2 °F 42% 30.38 in 10.0 mi SE 4.6 mph - N/A   Clear
5:15 PM 42.8 °F 41.1 °F 21.2 °F 42% 30.38 in 10.0 mi SE 3.5 mph - N/A   Clear
5:35 PM 39.2 °F 37.0 °F 21.2 °F 49% 30.38 in 10.0 mi SSE 3.5 mph - N/A   Clear
6:15 PM 39.2 °F 35.0 °F 21.2 °F 49% 30.39 in 10.0 mi South 5.8 mph - N/A   Clear
6:55 PM 37.4 °F 33.8 °F 21.2 °F 52% 30.40 in 10.0 mi South 4.6 mph - N/A   Clear
7:15 PM 35.6 °F 31.7 °F 23.0 °F 60% 30.41 in 10.0 mi SSE 4.6 mph - N/A   Clear
7:35 PM 35.6 °F 32.8 °F 21.2 °F 56% 30.41 in 10.0 mi South 3.5 mph - N/A   Clear
7:55 PM 33.8 °F - 24.8 °F 70% 30.41 in 10.0 mi Calm Calm - N/A   Clear
8:15 PM 30.2 °F - 24.8 °F 80% 30.41 in 10.0 mi Calm Calm - N/A   Clear
8:55 PM 30.2 °F - 24.8 °F 80% 30.41 in 10.0 mi Calm Calm - N/A   Clear
9:15 PM 28.4 °F - 24.8 °F 86% 30.41 in 10.0 mi Calm Calm - N/A   Clear
9:35 PM 28.4 °F - 24.8 °F 86% 30.41 in 10.0 mi Calm Calm - N/A   Clear
9:55 PM 28.4 °F - 24.8 °F 86% 30.41 in 10.0 mi Calm Calm - N/A   Clear
10:15 PM 28.4 °F - 23.0 °F 80% 30.41 in 10.0 mi Calm Calm - N/A   Clear
10:55 PM 28.4 °F - 23.0 °F 80% 30.41 in 10.0 mi Calm Calm - N/A   Clear
11:15 PM 28.4 °F - 23.0 °F 80% 30.40 in 10.0 mi Calm Calm - N/A   Clear
11:35 PM 26.6 °F - 23.0 °F 86% 30.41 in 10.0 mi Calm Calm - N/A   Clear
11:55 PM 26.6 °F - 23.0 °F 86% 30.40 in 10.0 mi Calm Calm - N/A   Clear